GFSNIL_sfc_thetae_159.txt.gz
Theta_e
325 324 323 322 321 321 321 321 324 323 323 323 323 323 324 324 323 323 322 322 321 321
327 325 324 324 324 323 323 324 324 325 323 323 323 324 324 323 323 323 323 323 322 321
326 327 326 326 324 324 324 325 325 325 325 324 324 324 324 324 324 323 323 322 322 321
324 325 326 326 325 325 325 325 325 326 326 325 324 325 325 325 324 322 321 321 320 320
323 324 325 325 325 325 325 326 326 326 325 325 324 324 324 324 323 321 319 319 318 318
318 321 323 324 325 325 325 325 325 325 324 324 323 323 323 324 322 320 320 318 317 317
309 316 320 322 323 323 324 324 323 323 323 323 322 321 320 321 319 319 318 317 317 316
308 311 315 316 319 321 320 321 321 320 320 319 317 316 314 317 317 316 313 309 310 308
306 307 308 310 311 311 312 313 313 311 313 312 308 303 304 311 313 309 307 300 296 295
302 303 305 305 305 305 309 308 310 312 311 309 306 300 301 300 308 304 302 297 295 293
298 300 299 300 300 301 302 305 303 303 306 305 301 298 298 296 302 301 299 297 295 293
294 296 296 296 297 297 296 295 295 294 295 296 293 296 296 297 294 293 291 292 293 293
292 294 296 296 294 291 293 291 291 290 292 290 290 294 295 296 292 289 289 288 288 288
289 291 294 292 289 289 289 288 289 288 288 289 290 292 294 294 293 291 289 288 287 288

GFSNIL_sfc_thetae_162.txt.gz
Theta_e
321 321 321 321 320 319 319 320 321 320 320 319 320 321 321 321 321 321 319 318 318 318
322 322 322 322 322 321 321 321 320 320 320 320 320 320 320 320 320 321 320 319 319 319
324 324 324 324 323 322 322 322 321 321 321 321 321 321 320 320 321 321 322 322 321 321
323 325 325 325 324 324 323 322 322 322 322 322 321 321 321 321 321 321 321 322 321 320
319 321 322 324 325 325 324 324 323 323 322 323 322 322 321 321 321 321 321 321 320 320
304 313 319 321 323 324 324 324 324 323 322 323 324 323 323 323 322 322 322 321 319 319
300 303 307 316 320 322 323 323 323 323 323 323 324 323 322 322 322 322 322 320 319 318
300 301 304 307 312 317 320 322 323 322 321 322 322 321 321 320 321 321 319 317 317 316
299 300 300 303 306 310 314 317 318 319 320 319 318 309 306 314 319 317 316 311 307 305
295 296 298 299 302 303 306 311 312 315 317 316 316 303 303 302 318 315 313 309 303 297
291 292 293 294 297 300 304 305 307 310 312 313 313 301 301 300 314 310 308 305 302 300
288 288 290 291 293 297 298 297 298 298 301 303 303 298 299 300 302 297 298 299 300 298
287 287 288 290 292 295 294 295 293 293 294 293 297 296 297 300 295 291 291 291 292 292
287 288 288 289 291 291 292 292 291 290 290 291 292 293 295 297 296 293 290 290 290 290

GFSNIL_sfc_thetae_165.txt.gz
Theta_e
320 320 320 320 320 318 318 318 320 320 319 318 319 319 318 318 318 318 317 316 316 316
319 319 320 320 321 320 320 319 319 320 320 319 319 319 318 318 318 318 318 318 317 317
320 321 321 321 320 321 321 320 319 319 320 320 319 319 318 318 318 318 319 319 318 318
306 313 319 322 322 322 323 322 320 320 319 319 319 319 318 318 318 317 318 319 319 318
301 303 308 313 319 323 323 323 322 321 320 320 320 320 319 318 318 317 317 319 319 319
297 299 301 304 308 316 320 323 323 321 321 320 320 320 320 319 319 319 319 320 319 319
295 296 298 300 303 306 311 317 320 323 322 322 321 321 321 320 320 320 320 321 320 321
293 294 295 297 299 302 305 309 314 318 320 321 321 321 320 320 321 321 320 320 321 321
291 291 291 292 294 296 299 303 307 311 316 318 318 310 306 314 320 318 318 318 318 318
289 289 289 290 291 292 294 298 300 305 310 314 318 306 304 302 318 319 318 316 316 312
286 287 287 289 289 291 293 294 297 299 304 308 312 305 302 299 310 316 315 314 314 310
285 285 286 287 289 289 290 291 292 293 295 298 303 302 299 300 308 307 307 306 305 305
285 286 286 287 288 289 289 289 290 290 292 292 295 299 298 299 304 300 296 291 294 293
284 285 286 287 288 288 289 289 289 289 291 292 293 295 296 297 300 301 293 291 289 292

GFSNIL_sfc_thetae_168.txt.gz
Theta_e
315 317 317 317 318 318 316 317 317 318 318 318 319 319 318 318 317 317 316 315 315 315
316 315 316 317 318 319 319 319 317 317 317 317 318 318 318 317 316 317 316 316 316 315
302 307 314 317 317 318 319 320 319 317 317 317 317 318 317 318 317 317 317 317 317 317
298 300 302 307 312 316 319 320 320 319 318 317 317 317 317 316 317 316 316 317 317 317
296 297 297 299 301 304 308 314 320 321 320 319 319 318 317 316 316 316 315 316 316 317
293 294 294 296 298 300 302 305 308 315 319 320 320 319 318 318 317 317 316 317 316 317
292 292 292 293 294 296 298 300 303 307 311 316 319 320 319 318 318 318 318 317 318 318
290 291 291 291 291 292 293 296 298 301 304 307 313 317 318 317 319 319 319 319 319 319
287 287 288 289 289 291 291 293 294 296 298 301 305 304 304 307 318 318 317 317 318 318
284 284 286 288 289 290 290 291 292 293 295 296 299 299 299 299 310 315 318 317 317 316
283 284 285 286 287 289 290 290 290 291 292 293 295 295 296 296 302 308 313 316 317 316
281 282 284 284 285 287 288 288 289 289 290 290 292 293 294 295 298 300 304 308 312 313
278 280 282 284 284 286 287 287 288 288 290 289 290 293 294 295 295 295 297 300 296 292
276 277 282 283 284 285 285 286 287 288 289 289 289 291 293 294 293 292 293 296 297 295

GFSNIL_sfc_thetae_171.txt.gz
Theta_e
316 317 317 318 318 318 318 319 320 319 320 320 320 321 321 321 321 320 319 318 318 318
303 309 316 318 319 320 320 320 320 319 319 319 320 320 320 319 319 319 319 319 318 317
299 300 302 305 309 313 318 320 320 320 319 319 319 319 319 319 319 318 318 318 318 316
297 298 299 299 300 301 304 307 312 318 320 319 319 319 318 318 317 316 317 317 316 316
295 295 295 296 297 298 299 302 304 306 310 316 319 320 318 318 318 316 316 316 316 316
292 293 293 294 294 295 296 297 299 301 303 306 310 315 319 318 318 318 317 317 316 316
290 290 291 292 292 293 294 294 295 297 298 301 303 306 310 316 318 318 318 318 318 317
288 288 289 289 290 292 293 293 294 294 296 297 299 302 303 303 306 312 316 317 318 318
285 285 286 288 289 290 291 292 292 293 293 294 295 295 295 296 298 300 304 311 316 317
282 283 284 286 287 287 288 290 290 291 292 292 293 293 293 293 295 297 299 302 307 312
280 279 281 284 285 285 287 287 288 289 290 290 292 293 293 292 294 296 297 299 301 305
277 277 278 281 283 284 285 285 286 287 288 288 290 292 292 293 293 293 293 296 299 301
276 275 276 278 282 283 283 284 285 286 287 287 289 291 292 293 292 290 290 291 292 292
274 274 276 278 280 281 282 282 283 285 286 287 288 289 291 292 292 291 290 289 290 292

GFSNIL_sfc_thetae_174.txt.gz
Theta_e
323 322 323 323 323 323 323 324 326 325 325 325 325 325 326 326 326 326 323 321 320 320
307 309 314 317 321 323 324 324 324 325 324 324 324 324 324 325 324 325 325 322 321 319
303 304 305 306 306 307 308 310 312 317 320 322 322 322 321 322 322 321 321 321 320 319
302 302 302 302 302 303 304 305 306 307 309 311 315 318 319 319 320 320 320 321 319 318
299 300 300 300 300 301 301 302 302 303 304 306 308 311 313 316 317 317 317 318 318 317
296 296 296 297 298 298 299 300 301 301 301 302 304 305 307 308 310 315 318 317 316 316
292 292 293 294 295 296 296 297 297 298 299 300 301 302 304 302 303 304 307 310 317 318
289 290 291 291 292 293 294 295 295 296 296 297 298 298 295 295 296 298 299 302 304 307
286 286 287 288 289 290 291 292 292 293 294 294 294 294 293 293 294 296 296 297 299 302
283 283 283 285 287 287 288 289 290 291 291 291 293 293 292 292 294 295 295 296 297 298
280 280 281 282 284 285 287 287 287 288 289 289 290 291 291 291 293 293 294 295 295 296
278 278 279 280 281 284 284 285 285 286 287 288 289 290 290 291 292 291 292 292 293 293
276 277 277 278 279 281 282 283 284 284 286 287 288 290 290 290 290 289 289 290 290 289
274 275 276 277 277 278 279 280 282 283 286 286 287 288 289 289 288 288 288 287 288 290